JBU803 KJFK-TJSJ

Flight info

Callsign JBU803
Flight time 3h 27m
Altitude 35000
Route SHIPP Y489 BEHHR/M079F350 Y489 RESQU DCT SKPPR L455 KINCH/N0467F350 L455 LENNT M423 PLING RTE7 SAALR
Aircraft A20N/M-SDE2E3FGHIRWXY/LB1

Departure

Time 2026-05-04 02:09
Airport John F. Kennedy International Airport (KJFK)

Arrival

Time 2026-05-04 05:37
Airport Luis Munoz Marin International Airport (TJSJ)
Time Latitude Longitude Altitude Speed Heading
2026-05-04 01:39 40.64491 -73.77527 28 ft 0 kts 283°
2026-05-04 02:01 40.64487 -73.77508 28 ft 3 kts 288°
2026-05-04 02:01 40.64480 -73.77484 28 ft 3 kts 302°
2026-05-04 02:01 40.64468 -73.77464 28 ft 3 kts 332°
2026-05-04 02:01 40.64454 -73.77459 28 ft 2 kts 26°
2026-05-04 02:02 40.64451 -73.77460 28 ft 0 kts 31°
2026-05-04 02:04 40.64472 -73.77428 28 ft 12 kts 80°
2026-05-04 02:04 40.64472 -73.77295 28 ft 13 kts 90°
2026-05-04 02:05 40.64456 -73.77196 28 ft 10 kts 122°
2026-05-04 02:05 40.64430 -73.77084 28 ft 16 kts 104°
2026-05-04 02:05 40.64389 -73.76922 28 ft 18 kts 129°
2026-05-04 02:05 40.64256 -73.76884 28 ft 24 kts 182°
2026-05-04 02:06 40.64094 -73.76900 28 ft 21 kts 187°
2026-05-04 02:06 40.63969 -73.76913 28 ft 16 kts 181°
2026-05-04 02:06 40.63854 -73.76913 28 ft 20 kts 180°
2026-05-04 02:06 40.63679 -73.76916 28 ft 27 kts 181°
2026-05-04 02:07 40.63513 -73.76920 28 ft 21 kts 183°
2026-05-04 02:07 40.63387 -73.76940 28 ft 15 kts 186°
2026-05-04 02:07 40.63269 -73.76946 28 ft 17 kts 180°
2026-05-04 02:07 40.63165 -73.76951 28 ft 12 kts 187°
2026-05-04 02:08 40.63063 -73.76997 28 ft 20 kts 210°
2026-05-04 02:08 40.62948 -73.77086 28 ft 17 kts 211°
2026-05-04 02:08 40.62846 -73.77166 28 ft 15 kts 211°
2026-05-04 02:08 40.62825 -73.77236 28 ft 9 kts 302°
2026-05-04 02:09 40.62960 -73.77532 28 ft 69 kts 301°
2026-05-04 02:09 40.63306 -73.78296 28 ft 123 kts 301°
2026-05-04 02:09 40.63825 -73.79440 38 ft 166 kts 301°
2026-05-04 02:09 40.64419 -73.80757 667 ft 165 kts 298°
2026-05-04 02:10 40.64651 -73.82229 1353 ft 171 kts 261°
2026-05-04 02:10 40.64075 -73.83610 2049 ft 178 kts 236°
2026-05-04 02:10 40.63270 -73.84971 2354 ft 201 kts 236°
2026-05-04 02:10 40.62690 -73.85975 2652 ft 213 kts 235°
2026-05-04 02:11 40.61345 -73.88100 3261 ft 241 kts 248°
2026-05-04 02:11 40.60739 -73.90161 4097 ft 245 kts 246°
2026-05-04 02:11 40.59591 -73.91811 5140 ft 252 kts 218°
2026-05-04 02:11 40.57908 -73.92540 6100 ft 265 kts 189°
2026-05-04 02:12 40.56053 -73.92139 6973 ft 281 kts 162°
2026-05-04 02:12 40.54269 -73.90967 7691 ft 293 kts 156°
2026-05-04 02:12 40.52453 -73.89684 8482 ft 300 kts 156°
2026-05-04 02:12 40.50596 -73.88368 9289 ft 305 kts 155°
2026-05-04 02:13 40.48898 -73.86629 10111 ft 313 kts 133°
2026-05-04 02:13 40.47696 -73.84167 10564 ft 331 kts 117°
2026-05-04 02:13 40.46632 -73.81388 10889 ft 351 kts 116°
2026-05-04 02:13 40.45497 -73.78455 11229 ft 369 kts 116°
2026-05-04 02:14 40.44516 -73.75320 11815 ft 374 kts 105°
2026-05-04 02:14 40.43797 -73.72049 12547 ft 375 kts 102°
2026-05-04 02:14 40.43097 -73.68742 13226 ft 379 kts 102°
2026-05-04 02:14 40.42373 -73.65401 13855 ft 383 kts 103°
2026-05-04 02:15 40.41631 -73.62035 14472 ft 386 kts 103°
2026-05-04 02:15 40.40872 -73.58640 15055 ft 391 kts 104°
2026-05-04 02:15 40.40099 -73.55215 15658 ft 394 kts 104°
2026-05-04 02:15 40.39312 -73.51756 16256 ft 398 kts 104°
2026-05-04 02:16 40.38515 -73.48264 16813 ft 402 kts 104°
2026-05-04 02:16 40.37695 -73.44706 17381 ft 405 kts 105°
2026-05-04 02:16 40.36877 -73.41155 17912 ft 409 kts 105°
2026-05-04 02:16 40.36047 -73.37574 18450 ft 412 kts 105°
2026-05-04 02:17 40.35211 -73.33972 18961 ft 416 kts 105°
2026-05-04 02:17 40.34365 -73.30337 19483 ft 420 kts 105°
2026-05-04 02:17 40.33410 -73.26711 20010 ft 424 kts 111°
2026-05-04 02:17 40.32178 -73.23186 20499 ft 428 kts 117°
2026-05-04 02:18 40.30698 -73.19797 20966 ft 431 kts 123°
2026-05-04 02:18 40.29049 -73.16509 21430 ft 434 kts 124°
2026-05-04 02:18 40.27388 -73.13192 21871 ft 438 kts 124°
2026-05-04 02:18 40.25711 -73.09857 22300 ft 441 kts 124°
2026-05-04 02:19 40.23998 -73.06448 22725 ft 445 kts 125°
2026-05-04 02:19 40.22078 -73.03270 23007 ft 447 kts 139°
2026-05-04 02:19 40.19592 -73.00883 23279 ft 444 kts 156°
2026-05-04 02:19 40.16788 -72.99258 23763 ft 439 kts 162°
2026-05-04 02:20 40.13997 -72.97647 24247 ft 440 kts 161°
2026-05-04 02:20 40.11407 -72.96110 24605 ft 442 kts 161°
2026-05-04 02:20 40.08604 -72.94442 24995 ft 444 kts 161°
2026-05-04 02:20 40.05775 -72.92773 25358 ft 446 kts 161°
2026-05-04 02:21 40.02950 -72.91107 25724 ft 447 kts 161°
2026-05-04 02:21 40.00112 -72.89432 26079 ft 448 kts 161°
2026-05-04 02:21 39.97244 -72.87730 26432 ft 449 kts 162°
2026-05-04 02:21 39.94413 -72.86030 26757 ft 451 kts 162°
2026-05-04 02:22 39.91599 -72.84332 27055 ft 452 kts 162°
2026-05-04 02:22 39.88736 -72.82631 27350 ft 454 kts 162°
2026-05-04 02:22 39.85864 -72.80935 27668 ft 455 kts 162°
2026-05-04 02:22 39.82987 -72.79239 27945 ft 456 kts 162°
2026-05-04 02:23 39.80080 -72.77526 28230 ft 458 kts 162°
2026-05-04 02:23 39.77180 -72.75815 28472 ft 460 kts 162°
2026-05-04 02:23 39.74269 -72.74094 28732 ft 461 kts 162°
2026-05-04 02:23 39.71332 -72.72358 28968 ft 462 kts 162°
2026-05-04 02:24 39.68504 -72.70686 29177 ft 464 kts 162°
2026-05-04 02:24 39.65486 -72.68903 29427 ft 465 kts 162°
2026-05-04 02:24 39.62544 -72.67165 29643 ft 466 kts 162°
2026-05-04 02:24 39.59552 -72.65400 29862 ft 468 kts 162°
2026-05-04 02:25 39.56650 -72.63685 30065 ft 469 kts 162°
2026-05-04 02:25 39.53654 -72.61916 30278 ft 470 kts 162°
2026-05-04 02:25 39.50682 -72.60163 30470 ft 471 kts 163°
2026-05-04 02:25 39.47692 -72.58400 30648 ft 473 kts 163°
2026-05-04 02:26 39.44694 -72.56632 30816 ft 474 kts 163°
2026-05-04 02:26 39.41699 -72.54869 31003 ft 475 kts 163°
2026-05-04 02:26 39.38684 -72.53093 31230 ft 475 kts 163°
2026-05-04 02:26 39.35680 -72.51325 31455 ft 475 kts 163°
2026-05-04 02:27 39.32643 -72.49540 31664 ft 475 kts 163°
2026-05-04 02:27 39.29664 -72.47798 31872 ft 475 kts 163°
2026-05-04 02:27 39.26626 -72.46023 32093 ft 475 kts 163°
2026-05-04 02:27 39.23613 -72.44259 32340 ft 474 kts 163°
2026-05-04 02:28 39.20653 -72.42519 32576 ft 474 kts 164°
2026-05-04 02:28 39.17647 -72.40760 32813 ft 473 kts 164°
2026-05-04 02:28 39.14653 -72.39009 33027 ft 472 kts 164°
2026-05-04 02:28 39.11670 -72.37275 33231 ft 472 kts 164°
2026-05-04 02:29 39.08702 -72.35549 33464 ft 471 kts 165°
2026-05-04 02:29 39.05691 -72.33798 33685 ft 471 kts 165°
2026-05-04 02:29 39.02713 -72.32061 33899 ft 470 kts 165°
2026-05-04 02:29 38.99750 -72.30344 34102 ft 470 kts 165°
2026-05-04 02:30 38.96755 -72.28607 34319 ft 469 kts 165°
2026-05-04 02:30 38.93784 -72.26891 34517 ft 468 kts 166°
2026-05-04 02:30 38.90815 -72.25174 34732 ft 467 kts 166°
2026-05-04 02:30 38.87865 -72.23476 34914 ft 466 kts 166°
2026-05-04 02:31 38.81966 -72.20073 35006 ft 465 kts 166°
2026-05-04 02:31 38.76073 -72.16676 35013 ft 465 kts 167°
2026-05-04 02:32 38.70166 -72.13276 35015 ft 464 kts 167°
2026-05-04 02:32 38.64292 -72.09900 35015 ft 464 kts 167°
2026-05-04 02:33 38.58384 -72.06505 35017 ft 463 kts 167°
2026-05-04 02:33 38.52517 -72.03139 35017 ft 462 kts 168°
2026-05-04 02:34 38.46654 -71.99787 35018 ft 462 kts 168°
2026-05-04 02:34 38.40779 -71.96565 35019 ft 459 kts 167°
2026-05-04 02:35 38.34890 -71.93365 35020 ft 462 kts 165°
2026-05-04 02:35 38.29049 -71.90004 35020 ft 462 kts 165°
2026-05-04 02:36 38.23149 -71.86601 35020 ft 462 kts 165°
2026-05-04 02:36 38.17333 -71.83264 35021 ft 462 kts 165°
2026-05-04 02:37 38.11508 -71.79929 35022 ft 462 kts 166°
2026-05-04 02:37 38.05616 -71.76560 35023 ft 459 kts 166°
2026-05-04 02:38 37.99796 -71.73245 35024 ft 459 kts 166°
2026-05-04 02:38 37.94930 -71.70422 35022 ft 464 kts 167°
2026-05-04 02:39 37.88105 -71.66412 35023 ft 462 kts 169°
2026-05-04 02:39 37.82239 -71.63150 35024 ft 460 kts 169°
2026-05-04 02:40 37.77343 -71.60438 35025 ft 459 kts 169°
2026-05-04 02:40 37.71509 -71.57213 35026 ft 459 kts 169°
2026-05-04 02:41 37.65657 -71.53976 35029 ft 460 kts 169°
2026-05-04 02:41 37.59797 -71.50731 35031 ft 460 kts 169°
2026-05-04 02:42 37.53931 -71.47472 35033 ft 458 kts 169°
2026-05-04 02:42 37.48109 -71.44236 35034 ft 458 kts 169°
2026-05-04 02:43 37.42300 -71.40944 35035 ft 459 kts 169°
2026-05-04 02:43 37.36528 -71.37616 35036 ft 458 kts 168°
2026-05-04 02:44 37.30713 -71.34238 35037 ft 458 kts 168°
2026-05-04 02:44 37.24943 -71.30880 35038 ft 458 kts 168°
2026-05-04 02:45 37.19187 -71.27511 35040 ft 456 kts 168°
2026-05-04 02:45 37.13446 -71.24148 35041 ft 456 kts 168°
2026-05-04 02:46 37.07737 -71.20804 35042 ft 456 kts 168°
2026-05-04 02:46 37.01958 -71.17408 35043 ft 454 kts 169°
2026-05-04 02:47 36.96244 -71.14060 35044 ft 454 kts 169°
2026-05-04 02:47 36.90519 -71.10704 35045 ft 452 kts 169°
2026-05-04 02:48 36.84874 -71.07402 35046 ft 452 kts 169°
2026-05-04 02:48 36.79142 -71.04048 35047 ft 452 kts 169°
2026-05-04 02:49 36.73471 -71.00728 35080 ft 450 kts 169°
2026-05-04 02:49 36.67819 -70.97428 35084 ft 449 kts 169°
2026-05-04 02:50 36.62157 -70.94140 35084 ft 449 kts 169°
2026-05-04 02:50 36.56669 -70.90949 35084 ft 449 kts 169°
2026-05-04 02:51 36.50859 -70.87573 35085 ft 449 kts 170°
2026-05-04 02:51 36.45178 -70.84277 35085 ft 447 kts 170°
2026-05-04 02:52 36.39577 -70.81041 35085 ft 447 kts 170°
2026-05-04 02:52 36.33945 -70.77789 35086 ft 446 kts 170°
2026-05-04 02:53 36.28343 -70.74556 35086 ft 444 kts 171°
2026-05-04 02:53 36.22750 -70.71340 35086 ft 444 kts 171°
2026-05-04 02:54 36.17161 -70.68142 35086 ft 444 kts 171°
2026-05-04 02:54 36.11530 -70.64916 35086 ft 442 kts 171°
2026-05-04 02:55 36.03234 -70.60173 35086 ft 441 kts 171°
2026-05-04 02:56 35.97610 -70.56963 35104 ft 441 kts 171°
2026-05-04 02:56 35.92078 -70.53800 35109 ft 439 kts 171°
2026-05-04 02:57 35.86553 -70.50656 35113 ft 438 kts 171°
2026-05-04 02:57 35.80988 -70.47504 35113 ft 438 kts 171°
2026-05-04 02:58 35.75444 -70.44394 35112 ft 433 kts 175°
2026-05-04 02:58 35.72639 -70.43358 35114 ft 416 kts 183°
2026-05-04 02:58 35.69873 -70.42682 35114 ft 408 kts 186°
2026-05-04 02:59 35.64289 -70.41457 35114 ft 407 kts 186°
2026-05-04 02:59 35.58685 -70.40120 35114 ft 409 kts 185°
2026-05-04 03:00 35.53107 -70.38713 35115 ft 410 kts 184°
2026-05-04 03:00 35.47517 -70.37270 35115 ft 412 kts 184°
2026-05-04 03:01 35.41893 -70.35801 35115 ft 413 kts 184°
2026-05-04 03:01 35.36282 -70.34332 35115 ft 413 kts 184°
2026-05-04 03:02 35.30667 -70.32853 35115 ft 413 kts 184°
2026-05-04 03:02 35.25059 -70.31373 35115 ft 413 kts 184°
2026-05-04 03:03 35.19468 -70.29897 35115 ft 413 kts 184°
2026-05-04 03:03 35.13839 -70.28411 35115 ft 413 kts 184°
2026-05-04 03:04 35.08237 -70.26939 35116 ft 413 kts 184°
2026-05-04 03:04 35.02637 -70.25476 35116 ft 413 kts 184°
2026-05-04 03:05 34.97032 -70.24008 35116 ft 413 kts 184°
2026-05-04 03:05 34.91370 -70.22524 35117 ft 413 kts 184°
2026-05-04 03:06 34.85783 -70.21056 35113 ft 413 kts 184°
2026-05-04 03:06 34.80183 -70.19591 35115 ft 412 kts 184°
2026-05-04 03:07 34.74638 -70.18163 35117 ft 405 kts 184°
2026-05-04 03:07 34.69128 -70.16739 35117 ft 403 kts 184°
2026-05-04 03:08 34.63649 -70.15312 35117 ft 404 kts 183°
2026-05-04 03:08 34.58161 -70.13883 35117 ft 404 kts 183°
2026-05-04 03:09 34.52695 -70.12467 35117 ft 404 kts 183°
2026-05-04 03:09 34.47169 -70.11023 35117 ft 404 kts 183°
2026-05-04 03:10 34.41685 -70.09607 35117 ft 404 kts 183°
2026-05-04 03:10 34.36195 -70.08189 35117 ft 404 kts 183°
2026-05-04 03:11 34.30695 -70.06768 35117 ft 404 kts 183°
2026-05-04 03:11 34.25198 -70.05353 35118 ft 405 kts 183°
2026-05-04 03:12 34.19672 -70.03925 35118 ft 404 kts 183°
2026-05-04 03:12 34.14171 -70.02510 35117 ft 404 kts 183°
2026-05-04 03:13 34.08684 -70.01103 35119 ft 404 kts 183°
2026-05-04 03:13 34.03194 -69.99696 35120 ft 405 kts 184°
2026-05-04 03:14 33.97712 -69.98232 35124 ft 405 kts 184°
2026-05-04 03:14 33.92192 -69.96903 35123 ft 405 kts 184°
2026-05-04 03:15 33.86676 -69.95504 35123 ft 406 kts 183°
2026-05-04 03:15 33.81169 -69.94087 35123 ft 406 kts 183°
2026-05-04 03:16 33.75593 -69.92660 35123 ft 406 kts 183°
2026-05-04 03:16 33.70077 -69.91255 35123 ft 406 kts 183°
2026-05-04 03:17 33.64571 -69.89862 35121 ft 406 kts 183°
2026-05-04 03:17 33.59003 -69.88447 35120 ft 407 kts 183°
2026-05-04 03:18 33.53476 -69.87045 35120 ft 407 kts 183°
2026-05-04 03:18 33.47956 -69.85647 35120 ft 407 kts 183°
2026-05-04 03:19 33.42437 -69.84252 35120 ft 407 kts 183°
2026-05-04 03:19 33.36905 -69.82855 35120 ft 407 kts 183°
2026-05-04 03:20 33.31360 -69.81461 35120 ft 407 kts 183°
2026-05-04 03:20 33.25822 -69.80090 35120 ft 407 kts 183°
2026-05-04 03:21 33.20297 -69.78729 35120 ft 403 kts 183°
2026-05-04 03:21 33.14804 -69.77369 35120 ft 404 kts 183°
2026-05-04 03:22 33.09293 -69.75996 35118 ft 404 kts 183°
2026-05-04 03:22 33.03793 -69.74633 35118 ft 404 kts 183°
2026-05-04 03:23 32.98294 -69.73257 35118 ft 405 kts 183°
2026-05-04 03:23 32.92797 -69.71882 35118 ft 405 kts 183°
2026-05-04 03:24 32.87250 -69.70499 35108 ft 407 kts 183°
2026-05-04 03:24 32.81715 -69.69121 35105 ft 407 kts 183°
2026-05-04 03:25 32.76173 -69.67740 35104 ft 407 kts 183°
2026-05-04 03:25 32.70635 -69.66364 35104 ft 407 kts 183°
2026-05-04 03:26 32.65091 -69.64987 35104 ft 407 kts 183°
2026-05-04 03:26 32.59561 -69.63626 35105 ft 408 kts 183°
2026-05-04 03:27 32.53996 -69.62249 35105 ft 407 kts 182°
2026-05-04 03:27 32.48471 -69.60887 35105 ft 406 kts 182°
2026-05-04 03:28 32.42953 -69.59523 35118 ft 407 kts 182°
2026-05-04 03:28 32.37358 -69.58140 35127 ft 407 kts 182°
2026-05-04 03:29 32.31877 -69.56789 35127 ft 407 kts 182°
2026-05-04 03:29 32.26326 -69.55422 35127 ft 407 kts 182°
2026-05-04 03:30 32.20758 -69.54056 35127 ft 407 kts 182°
2026-05-04 03:30 32.15219 -69.52701 35126 ft 407 kts 182°
2026-05-04 03:31 32.09699 -69.51350 35126 ft 407 kts 182°
2026-05-04 03:31 32.04149 -69.49993 35126 ft 407 kts 182°
2026-05-04 03:32 31.98600 -69.48634 35125 ft 406 kts 182°
2026-05-04 03:32 31.93089 -69.47264 35122 ft 405 kts 182°
2026-05-04 03:33 31.87572 -69.45926 35121 ft 405 kts 182°
2026-05-04 03:33 31.82074 -69.44596 35120 ft 405 kts 182°
2026-05-04 03:34 31.76556 -69.43257 35120 ft 405 kts 182°
2026-05-04 03:34 31.71048 -69.41923 35120 ft 405 kts 182°
2026-05-04 03:35 31.66434 -69.40809 35119 ft 405 kts 182°
2026-05-04 03:35 31.60917 -69.39471 35119 ft 405 kts 182°
2026-05-04 03:36 31.55397 -69.38141 35119 ft 405 kts 182°
2026-05-04 03:36 31.49903 -69.36818 35119 ft 406 kts 182°
2026-05-04 03:37 31.44347 -69.35474 35118 ft 406 kts 182°
2026-05-04 03:37 31.38814 -69.34143 35118 ft 406 kts 182°
2026-05-04 03:38 31.33291 -69.32811 35118 ft 407 kts 182°
2026-05-04 03:38 31.27714 -69.31468 35117 ft 407 kts 182°
2026-05-04 03:39 31.22180 -69.30140 35117 ft 407 kts 182°
2026-05-04 03:39 31.16678 -69.28818 35117 ft 407 kts 182°
2026-05-04 03:40 31.11125 -69.27487 35117 ft 409 kts 182°
2026-05-04 03:40 31.05499 -69.26139 35116 ft 410 kts 182°
2026-05-04 03:41 30.99923 -69.24805 35116 ft 410 kts 181°
2026-05-04 03:41 30.94344 -69.23473 35116 ft 410 kts 181°
2026-05-04 03:42 30.88747 -69.22143 35116 ft 410 kts 181°
2026-05-04 03:42 30.83154 -69.20839 35115 ft 410 kts 181°
2026-05-04 03:43 30.77563 -69.19526 35115 ft 411 kts 181°
2026-05-04 03:43 30.71962 -69.18210 35115 ft 412 kts 181°
2026-05-04 03:44 30.66300 -69.16873 35114 ft 413 kts 181°
2026-05-04 03:44 30.60684 -69.15540 35114 ft 414 kts 181°
2026-05-04 03:45 30.55059 -69.14207 35114 ft 414 kts 181°
2026-05-04 03:45 30.49421 -69.12877 35114 ft 414 kts 181°
2026-05-04 03:46 30.43756 -69.11537 35113 ft 414 kts 181°
2026-05-04 03:46 30.38143 -69.10212 35113 ft 415 kts 181°
2026-05-04 03:47 30.32449 -69.08870 35111 ft 416 kts 181°
2026-05-04 03:47 30.26780 -69.07532 35109 ft 416 kts 180°
2026-05-04 03:48 30.21141 -69.06211 35108 ft 417 kts 181°
2026-05-04 03:48 30.15427 -69.04867 35108 ft 417 kts 180°
2026-05-04 03:49 30.09744 -69.03534 35108 ft 417 kts 180°
2026-05-04 03:49 30.04065 -69.02200 35107 ft 417 kts 180°
2026-05-04 03:50 29.98384 -69.00877 35107 ft 418 kts 180°
2026-05-04 03:50 29.92643 -68.99610 35106 ft 421 kts 180°
2026-05-04 03:51 29.86860 -68.98248 35106 ft 423 kts 179°
2026-05-04 03:51 29.81107 -68.96874 35106 ft 423 kts 179°
2026-05-04 03:52 29.75356 -68.95513 35105 ft 422 kts 179°
2026-05-04 03:52 29.69641 -68.94171 35105 ft 422 kts 179°
2026-05-04 03:53 29.63861 -68.92820 35104 ft 422 kts 179°
2026-05-04 03:53 29.58103 -68.91478 35104 ft 422 kts 179°
2026-05-04 03:54 29.52347 -68.90143 35103 ft 422 kts 179°
2026-05-04 03:54 29.46589 -68.88810 35103 ft 422 kts 179°
2026-05-04 03:55 29.40818 -68.87473 35103 ft 422 kts 179°
2026-05-04 03:55 29.35063 -68.86141 35102 ft 422 kts 179°
2026-05-04 03:56 29.29302 -68.84810 35102 ft 423 kts 179°
2026-05-04 03:56 29.23537 -68.83489 35101 ft 423 kts 179°
2026-05-04 03:57 29.17762 -68.82158 35101 ft 423 kts 179°
2026-05-04 03:57 29.12004 -68.80831 35100 ft 423 kts 179°
2026-05-04 03:58 29.03356 -68.78849 35099 ft 423 kts 179°
2026-05-04 03:58 28.97589 -68.77524 35099 ft 423 kts 179°
2026-05-04 03:59 28.91822 -68.76206 35098 ft 424 kts 179°
2026-05-04 03:59 28.86009 -68.74877 35098 ft 424 kts 179°
2026-05-04 04:00 28.80226 -68.73560 35097 ft 425 kts 179°
2026-05-04 04:00 28.74427 -68.72256 35097 ft 425 kts 179°
2026-05-04 04:01 28.68625 -68.70951 35096 ft 426 kts 179°
2026-05-04 04:01 28.62822 -68.69637 35095 ft 426 kts 178°
2026-05-04 04:02 28.57017 -68.68323 35095 ft 426 kts 178°
2026-05-04 04:02 28.51215 -68.67007 35095 ft 426 kts 178°
2026-05-04 04:03 28.45365 -68.65683 35094 ft 426 kts 178°
2026-05-04 04:03 28.39537 -68.64360 35094 ft 427 kts 178°
2026-05-04 04:04 28.33721 -68.63045 35093 ft 427 kts 178°
2026-05-04 04:04 28.27908 -68.61726 35093 ft 427 kts 178°
2026-05-04 04:05 28.22106 -68.60417 35088 ft 425 kts 178°
2026-05-04 04:05 28.16302 -68.59111 35095 ft 427 kts 178°
2026-05-04 04:06 28.10497 -68.57801 35098 ft 427 kts 178°
2026-05-04 04:06 28.04686 -68.56492 35089 ft 427 kts 178°
2026-05-04 04:07 27.98814 -68.55171 35085 ft 428 kts 178°
2026-05-04 04:07 27.92976 -68.53870 35084 ft 428 kts 178°
2026-05-04 04:08 27.87168 -68.52571 35086 ft 424 kts 178°
2026-05-04 04:08 27.81361 -68.51267 35084 ft 426 kts 178°
2026-05-04 04:09 27.75559 -68.49961 35084 ft 428 kts 178°
2026-05-04 04:09 27.69720 -68.48656 35081 ft 428 kts 178°
2026-05-04 04:10 27.63892 -68.47354 35081 ft 428 kts 178°
2026-05-04 04:10 27.58028 -68.46049 35080 ft 429 kts 177°
2026-05-04 04:11 27.52176 -68.44744 35079 ft 429 kts 177°
2026-05-04 04:11 27.46323 -68.43438 35078 ft 429 kts 177°
2026-05-04 04:12 27.40452 -68.42135 35078 ft 430 kts 177°
2026-05-04 04:12 27.34588 -68.40830 35077 ft 430 kts 177°
2026-05-04 04:13 27.28726 -68.39531 35076 ft 430 kts 177°
2026-05-04 04:13 27.22839 -68.38227 35075 ft 431 kts 177°
2026-05-04 04:14 27.16964 -68.36929 35075 ft 431 kts 177°
2026-05-04 04:14 27.11078 -68.35628 35079 ft 431 kts 177°
2026-05-04 04:15 27.05209 -68.34331 35080 ft 431 kts 177°
2026-05-04 04:15 26.99310 -68.33031 35079 ft 432 kts 177°
2026-05-04 04:16 26.93444 -68.31740 35078 ft 432 kts 176°
2026-05-04 04:16 26.87546 -68.30442 35064 ft 432 kts 176°
2026-05-04 04:17 26.81621 -68.29139 35061 ft 432 kts 176°
2026-05-04 04:17 26.75721 -68.27841 35061 ft 434 kts 176°
2026-05-04 04:18 26.69770 -68.26532 35060 ft 435 kts 176°
2026-05-04 04:18 26.63842 -68.25229 35060 ft 435 kts 176°
2026-05-04 04:19 26.57898 -68.23924 35059 ft 436 kts 176°
2026-05-04 04:19 26.51954 -68.22621 35059 ft 436 kts 176°
2026-05-04 04:20 26.46009 -68.21320 35058 ft 436 kts 176°
2026-05-04 04:20 26.40060 -68.20020 35058 ft 437 kts 175°
2026-05-04 04:21 26.34086 -68.18716 35058 ft 437 kts 175°
2026-05-04 04:21 26.28177 -68.17426 35057 ft 437 kts 175°
2026-05-04 04:22 26.22152 -68.16113 35057 ft 437 kts 175°
2026-05-04 04:22 26.16200 -68.14811 35056 ft 437 kts 175°
2026-05-04 04:23 26.10176 -68.13500 35056 ft 437 kts 175°
2026-05-04 04:23 26.04254 -68.12210 35055 ft 437 kts 175°
2026-05-04 04:24 25.98256 -68.10905 35055 ft 437 kts 175°
2026-05-04 04:24 25.92288 -68.09608 35055 ft 437 kts 175°
2026-05-04 04:25 25.86326 -68.08314 35054 ft 437 kts 175°
2026-05-04 04:25 25.80396 -68.07029 35054 ft 437 kts 175°
2026-05-04 04:26 25.74388 -68.05729 35053 ft 437 kts 175°
2026-05-04 04:26 25.68422 -68.04440 35053 ft 437 kts 175°
2026-05-04 04:27 25.62415 -68.03148 35053 ft 437 kts 175°
2026-05-04 04:27 25.57459 -68.02085 35052 ft 438 kts 175°
2026-05-04 04:28 25.50466 -68.00578 35052 ft 438 kts 175°
2026-05-04 04:28 25.45508 -67.99513 35052 ft 438 kts 175°
2026-05-04 04:29 25.39513 -67.98249 35051 ft 438 kts 175°
2026-05-04 04:29 25.33485 -67.96981 35051 ft 438 kts 175°
2026-05-04 04:30 25.27537 -67.95716 35052 ft 439 kts 175°
2026-05-04 04:30 25.21509 -67.94434 35052 ft 439 kts 175°
2026-05-04 04:31 25.15519 -67.93162 35051 ft 439 kts 175°
2026-05-04 04:31 25.09550 -67.91888 35051 ft 440 kts 175°
2026-05-04 04:32 25.03546 -67.90612 35051 ft 440 kts 175°
2026-05-04 04:32 24.97503 -67.89323 35051 ft 440 kts 175°
2026-05-04 04:33 24.91497 -67.88047 35050 ft 440 kts 175°
2026-05-04 04:33 24.85564 -67.86783 35050 ft 440 kts 175°
2026-05-04 04:34 24.79513 -67.85498 35050 ft 440 kts 175°
2026-05-04 04:34 24.73465 -67.84211 35050 ft 440 kts 174°
2026-05-04 04:35 24.67459 -67.82939 35049 ft 440 kts 174°
2026-05-04 04:35 24.61462 -67.81665 35049 ft 441 kts 174°
2026-05-04 04:36 24.55442 -67.80392 35049 ft 441 kts 174°
2026-05-04 04:36 24.49533 -67.79140 35049 ft 441 kts 174°
2026-05-04 04:37 24.37409 -67.76577 35048 ft 441 kts 174°
2026-05-04 04:38 24.31335 -67.75296 35048 ft 442 kts 174°
2026-05-04 04:38 24.25313 -67.74027 35048 ft 442 kts 174°
2026-05-04 04:39 24.19361 -67.72784 35048 ft 442 kts 174°
2026-05-04 04:39 24.13328 -67.71525 35048 ft 442 kts 174°
2026-05-04 04:40 24.07249 -67.70251 35048 ft 442 kts 174°
2026-05-04 04:40 24.01229 -67.68995 35048 ft 442 kts 174°
2026-05-04 04:41 23.95157 -67.67741 35048 ft 445 kts 174°
2026-05-04 04:41 23.89096 -67.66507 35048 ft 445 kts 173°
2026-05-04 04:42 23.83018 -67.65230 35048 ft 445 kts 173°
2026-05-04 04:42 23.76924 -67.63941 35048 ft 445 kts 173°
2026-05-04 04:43 23.70846 -67.62659 35048 ft 445 kts 173°
2026-05-04 04:43 23.64781 -67.61384 35048 ft 445 kts 173°
2026-05-04 04:44 23.58702 -67.60110 35048 ft 446 kts 173°
2026-05-04 04:44 23.52605 -67.58838 35048 ft 446 kts 173°
2026-05-04 04:45 23.46511 -67.57567 35048 ft 446 kts 173°
2026-05-04 04:47 23.25197 -67.53134 35046 ft 446 kts 173°
2026-05-04 04:47 23.19097 -67.51867 35049 ft 445 kts 173°
2026-05-04 04:48 23.13022 -67.50633 35059 ft 445 kts 173°
2026-05-04 04:49 22.97825 -67.47510 35050 ft 447 kts 173°
2026-05-04 04:49 22.91722 -67.46239 35050 ft 447 kts 173°
2026-05-04 04:50 22.85610 -67.44972 35051 ft 447 kts 173°
2026-05-04 04:50 22.79506 -67.43713 35051 ft 447 kts 173°
2026-05-04 04:51 22.73392 -67.42446 35052 ft 448 kts 173°
2026-05-04 04:51 22.67276 -67.41182 35056 ft 447 kts 173°
2026-05-04 04:52 22.61168 -67.39928 35053 ft 447 kts 172°
2026-05-04 04:52 22.55046 -67.38668 35053 ft 448 kts 172°
2026-05-04 04:53 22.48928 -67.37413 35054 ft 448 kts 172°
2026-05-04 04:53 22.42807 -67.36157 35059 ft 448 kts 172°
2026-05-04 04:54 22.36648 -67.34897 35053 ft 448 kts 172°
2026-05-04 04:54 22.30526 -67.33649 35069 ft 448 kts 172°
2026-05-04 04:55 22.24402 -67.32392 35084 ft 449 kts 172°
2026-05-04 04:55 22.18276 -67.31149 35097 ft 449 kts 172°
2026-05-04 04:56 22.12145 -67.29919 35098 ft 449 kts 172°
2026-05-04 04:56 22.06020 -67.28678 35100 ft 449 kts 172°
2026-05-04 04:57 21.99896 -67.27435 35099 ft 449 kts 172°
2026-05-04 04:57 21.93714 -67.26189 35099 ft 450 kts 172°
2026-05-04 04:58 21.87572 -67.24945 35099 ft 450 kts 172°
2026-05-04 04:58 21.81424 -67.23695 35092 ft 450 kts 172°
2026-05-04 04:59 21.75284 -67.22448 35086 ft 450 kts 172°
2026-05-04 04:59 21.69135 -67.21205 35086 ft 450 kts 172°
2026-05-04 05:00 21.62989 -67.19959 35087 ft 450 kts 172°
2026-05-04 05:01 21.53717 -67.18205 35087 ft 450 kts 173°
2026-05-04 05:01 21.47548 -67.17070 35088 ft 450 kts 173°
2026-05-04 05:02 21.41386 -67.15934 35066 ft 450 kts 173°
2026-05-04 05:02 21.35217 -67.14800 35064 ft 450 kts 173°
2026-05-04 05:03 21.29043 -67.13663 35065 ft 451 kts 172°
2026-05-04 05:04 21.16765 -67.10710 35072 ft 452 kts 168°
2026-05-04 05:04 21.10669 -67.09068 35073 ft 453 kts 168°
2026-05-04 05:06 20.86253 -67.02583 35077 ft 453 kts 168°
2026-05-04 05:07 20.80104 -67.00959 35077 ft 453 kts 168°
2026-05-04 05:07 20.73986 -66.99350 35078 ft 453 kts 168°
2026-05-04 05:09 20.46441 -66.92110 35082 ft 454 kts 168°
2026-05-04 05:10 20.40272 -66.90492 35082 ft 455 kts 168°
2026-05-04 05:10 20.34369 -66.88948 35083 ft 454 kts 168°
2026-05-04 05:11 20.31483 -66.88196 34981 ft 455 kts 168°
2026-05-04 05:11 20.28586 -66.87440 34746 ft 455 kts 168°
2026-05-04 05:11 20.25520 -66.86640 34496 ft 455 kts 167°
2026-05-04 05:11 20.22445 -66.85839 34245 ft 455 kts 167°
2026-05-04 05:12 20.19378 -66.85043 33995 ft 455 kts 167°
2026-05-04 05:12 20.16310 -66.84244 33746 ft 455 kts 167°
2026-05-04 05:12 20.13236 -66.83441 33495 ft 455 kts 167°
2026-05-04 05:12 20.10187 -66.82644 32963 ft 452 kts 167°
2026-05-04 05:13 20.07136 -66.81844 32186 ft 452 kts 167°
2026-05-04 05:13 20.04096 -66.81047 31488 ft 449 kts 167°
2026-05-04 05:13 20.01041 -66.80245 30778 ft 446 kts 167°
2026-05-04 05:13 19.98057 -66.79400 30082 ft 443 kts 162°
2026-05-04 05:14 19.95238 -66.78130 29465 ft 439 kts 155°
2026-05-04 05:14 19.92525 -66.76672 28816 ft 435 kts 154°
2026-05-04 05:14 19.89860 -66.75196 28190 ft 431 kts 153°
2026-05-04 05:14 19.87221 -66.73742 27597 ft 426 kts 153°
2026-05-04 05:15 19.84599 -66.72312 26991 ft 421 kts 153°
2026-05-04 05:15 19.82010 -66.70907 26428 ft 416 kts 153°
2026-05-04 05:15 19.79443 -66.69522 25835 ft 412 kts 153°
2026-05-04 05:15 19.76903 -66.68152 25259 ft 408 kts 153°
2026-05-04 05:16 19.74387 -66.66802 24722 ft 403 kts 153°
2026-05-04 05:16 19.71898 -66.65469 24161 ft 400 kts 153°
2026-05-04 05:16 19.69431 -66.64155 23612 ft 396 kts 153°
2026-05-04 05:16 19.66955 -66.62834 23090 ft 391 kts 153°
2026-05-04 05:17 19.64537 -66.61538 22538 ft 388 kts 153°
2026-05-04 05:17 19.62135 -66.60255 22004 ft 385 kts 154°
2026-05-04 05:17 19.59760 -66.58990 21501 ft 381 kts 154°
2026-05-04 05:17 19.57405 -66.57742 20964 ft 378 kts 154°
2026-05-04 05:18 19.55028 -66.56485 20450 ft 375 kts 154°
2026-05-04 05:18 19.52713 -66.55266 19937 ft 371 kts 154°
2026-05-04 05:18 19.50413 -66.54052 19406 ft 368 kts 155°
2026-05-04 05:18 19.48130 -66.52852 18914 ft 364 kts 155°
2026-05-04 05:19 19.45878 -66.51667 18402 ft 361 kts 155°
2026-05-04 05:19 19.43640 -66.50492 17885 ft 358 kts 155°
2026-05-04 05:19 19.41423 -66.49328 17321 ft 356 kts 155°
2026-05-04 05:19 19.39204 -66.48174 16746 ft 355 kts 155°
2026-05-04 05:20 19.37002 -66.47034 16243 ft 351 kts 155°
2026-05-04 05:20 19.34830 -66.45904 15748 ft 346 kts 155°
2026-05-04 05:20 19.32967 -66.44933 15301 ft 344 kts 155°
2026-05-04 05:20 19.31448 -66.44139 14943 ft 341 kts 155°
2026-05-04 05:21 19.29419 -66.43081 14482 ft 337 kts 155°
2026-05-04 05:21 19.27332 -66.41990 13988 ft 333 kts 155°
2026-05-04 05:21 19.25269 -66.40913 13499 ft 329 kts 155°
2026-05-04 05:21 19.23235 -66.39851 13015 ft 325 kts 154°
2026-05-04 05:22 19.21220 -66.38799 12523 ft 322 kts 154°
2026-05-04 05:22 19.19228 -66.37759 12085 ft 317 kts 154°
2026-05-04 05:22 19.17279 -66.36743 11775 ft 308 kts 154°
2026-05-04 05:22 19.15394 -66.35759 11566 ft 297 kts 154°
2026-05-04 05:23 19.13559 -66.34802 11377 ft 286 kts 154°
2026-05-04 05:23 19.11798 -66.33882 11131 ft 285 kts 153°
2026-05-04 05:23 19.09913 -66.33105 11024 ft 295 kts 165°
2026-05-04 05:23 19.07896 -66.32721 11001 ft 295 kts 171°
2026-05-04 05:24 19.05864 -66.32417 10992 ft 295 kts 171°
2026-05-04 05:24 19.03857 -66.32079 10633 ft 292 kts 169°
2026-05-04 05:24 19.01863 -66.31705 10183 ft 291 kts 169°
2026-05-04 05:24 18.99884 -66.31320 9743 ft 289 kts 168°
2026-05-04 05:25 18.97919 -66.30935 9306 ft 287 kts 168°
2026-05-04 05:25 18.95969 -66.30549 8872 ft 284 kts 167°
2026-05-04 05:25 18.94033 -66.30165 8443 ft 282 kts 167°
2026-05-04 05:25 18.92117 -66.29780 8020 ft 280 kts 167°
2026-05-04 05:26 18.90188 -66.29385 7587 ft 278 kts 167°
2026-05-04 05:26 18.88303 -66.29000 7165 ft 276 kts 166°
2026-05-04 05:26 18.86429 -66.28619 6742 ft 274 kts 166°
2026-05-04 05:26 18.84568 -66.28241 6318 ft 272 kts 166°
2026-05-04 05:27 18.82725 -66.27869 5900 ft 270 kts 166°
2026-05-04 05:28 18.70136 -66.25313 3096 ft 260 kts 167°
2026-05-04 05:29 18.68339 -66.24945 3025 ft 259 kts 167°
2026-05-04 05:29 18.66568 -66.24587 3007 ft 261 kts 167°
2026-05-04 05:29 18.64796 -66.24234 3003 ft 259 kts 167°
2026-05-04 05:29 18.63023 -66.23882 3004 ft 259 kts 167°
2026-05-04 05:31 18.50636 -66.21387 2244 ft 258 kts 167°
2026-05-04 05:31 18.48872 -66.21031 2211 ft 249 kts 167°
2026-05-04 05:32 18.47230 -66.20712 2192 ft 227 kts 167°
2026-05-04 05:32 18.45795 -66.20370 2172 ft 200 kts 156°
2026-05-04 05:32 18.44729 -66.19590 2203 ft 184 kts 131°
2026-05-04 05:33 18.43701 -66.17204 2216 ft 180 kts 102°
2026-05-04 05:33 18.43522 -66.15903 2206 ft 180 kts 96°
2026-05-04 05:33 18.43438 -66.14592 2203 ft 180 kts 93°
2026-05-04 05:33 18.43401 -66.13277 2197 ft 180 kts 91°
2026-05-04 05:34 18.43385 -66.11964 1971 ft 180 kts 90°
2026-05-04 05:34 18.43379 -66.10725 1736 ft 154 kts 90°
2026-05-04 05:34 18.43375 -66.09627 1540 ft 149 kts 90°
2026-05-04 05:34 18.43372 -66.08537 1345 ft 149 kts 90°
2026-05-04 05:35 18.43369 -66.07446 1150 ft 149 kts 90°
2026-05-04 05:35 18.43367 -66.06359 955 ft 148 kts 90°
2026-05-04 05:35 18.43364 -66.05272 761 ft 149 kts 90°
2026-05-04 05:35 18.43362 -66.04183 567 ft 149 kts 90°
2026-05-04 05:36 18.43359 -66.03101 374 ft 148 kts 90°
2026-05-04 05:36 18.43357 -66.02016 178 ft 149 kts 90°
2026-05-04 05:36 18.43354 -66.00940 25 ft 139 kts 90°
2026-05-04 05:36 18.43351 -66.00094 24 ft 88 kts 90°
2026-05-04 05:37 18.43350 -65.99638 24 ft 32 kts 90°
2026-05-04 05:37 18.43396 -65.99548 24 ft 11 kts
2026-05-04 05:37 18.43457 -65.99570 24 ft 10 kts 297°
2026-05-04 05:38 18.43463 -65.99803 24 ft 15 kts 270°
2026-05-04 05:38 18.43464 -65.99929 24 ft 20 kts 270°
2026-05-04 05:38 18.43464 -66.00079 24 ft 19 kts 270°
2026-05-04 05:38 18.43464 -66.00212 24 ft 17 kts 270°
2026-05-04 05:39 18.43464 -66.00327 24 ft 15 kts 270°
2026-05-04 05:39 18.43513 -66.00421 24 ft 6 kts
2026-05-04 05:39 18.43546 -66.00419 24 ft 3 kts
2026-05-04 05:40 18.43575 -66.00417 24 ft 1 kts